GW1476 Weather Reports


time (UTC)temp
C
wind
direction
speed
KPH
gust
KPH
rain 1hr
cm
rain 24hr
cm
rain mn
cm
humidity
%
barometer
mb
20260508065133 3 248 0.0 0.0 0.00 0.00 0.00 99 1018.2
20260508064520 3 203 0.0 0.0 0.00 0.00 0.00 99 1018.6
20260508063925 3 270 0.0 0.0 0.00 0.00 0.00 99 1018.6
20260508063318 3 270 0.0 0.0 0.00 0.00 0.00 99 1018.6
20260508062742 3 270 0.0 0.0 0.00 0.00 0.00 99 1018.6
20260508062146 3 270 0.0 0.0 0.00 0.00 0.00 99 1018.6
20260508061530 3 225 0.0 0.0 0.00 0.00 0.00 99 1018.6
20260508060909 4 248 0.0 0.0 0.00 0.00 0.00 99 1018.6
20260508060341 3 248 0.0 0.0 0.00 0.00 0.00 99 1018.6
20260508055751 3 270 0.0 0.0 0.00 0.00 0.00 99 1018.6
20260508055141 3 225 0.0 0.0 0.00 0.00 0.00 99 1018.6
20260508054544 3 225 0.0 0.0 0.00 0.00 0.00 99 1018.6
20260508052737 4 203 0.0 0.0 0.00 0.00 0.00 99 1018.6
20260508052132 4 248 0.0 0.0 0.00 0.00 0.00 99 1018.6
20260508051526 4 270 0.0 0.0 0.00 0.00 0.00 99 1018.6
20260508050945 4 248 0.0 0.0 0.00 0.00 0.00 99 1018.6
20260508050309 4 225 0.0 0.0 0.00 0.00 0.00 99 1018.6
20260508045724 4 248 0.0 0.0 0.00 0.00 0.00 99 1018.2
20260508045128 4 270 0.0 0.0 0.00 0.00 0.00 99 1018.2
20260508044542 5 248 0.0 0.0 0.00 0.00 0.00 99 1018.2
20260508043936 5 225 0.0 0.0 0.00 0.00 0.00 99 1018.6
20260508043347 5 225 0.0 0.0 0.00 0.00 0.00 99 1018.2
20260508042723 5 225 0.0 0.0 0.00 0.00 0.00 99 1018.2
20260508042141 5 225 0.0 0.0 0.00 0.00 0.00 99 1018.6
20260508041532 5 203 0.0 0.0 0.00 0.00 0.00 99 1018.2
20260508040318 5 203 0.0 0.0 0.00 0.00 0.00 99 1018.2
20260508035120 5 225 0.0 1.6 0.00 0.00 0.00 99 1018.2
20260508034526 6 203 0.0 0.0 0.00 0.00 0.00 99 1018.2
20260508033916 6 180 0.0 0.0 0.00 0.00 0.00 99 1018.2
20260508033321 6 225 0.0 1.6 0.00 0.00 0.00 99 1018.2
20260508032734 6 203 1.6 3.2 0.00 0.00 0.00 99 1018.2
20260508032146 6 158 0.0 0.0 0.00 0.00 0.00 99 1018.2
20260508031526 6 158 0.0 0.0 0.00 0.00 0.00 99 1018.2
20260508030931 6 180 1.6 1.6 0.00 0.00 0.00 99 1017.9
20260508030311 6 203 0.0 1.6 0.00 0.00 0.00 99 1017.6
20260508025719 7 225 0.0 1.6 0.00 0.00 0.00 99 1017.6
20260508025114 7 203 1.6 1.6 0.00 0.00 0.00 99 1017.6
20260508024525 7 203 3.2 3.2 0.00 0.00 0.00 99 1017.6
20260508023946 7 203 1.6 3.2 0.00 0.00 0.00 99 1017.2
20260508023341 7 203 1.6 3.2 0.00 0.00 0.00 99 1017.2
20260508022723 7 203 1.6 3.2 0.00 0.00 0.00 98 1017.2
20260508021515 8 203 0.0 0.0 0.00 0.00 0.00 96 1017.2
20260508020945 8 203 0.0 0.0 0.00 0.00 0.00 96 1016.9
20260508020349 8 203 0.0 1.6 0.00 0.00 0.00 95 1016.9
20260508015738 8 203 0.0 0.0 0.00 0.00 0.00 94 1016.9
20260508015145 8 203 1.6 1.6 0.00 0.00 0.00 93 1016.9
20260508014517 8 203 1.6 1.6 0.00 0.00 0.00 91 1016.5
20260508012725 10 180 3.2 3.2 0.00 0.00 0.00 88 1016.2
20260508011528 10 203 1.6 1.6 0.00 0.00 0.00 84 1016.2
20260508010935 10 180 0.0 3.2 0.00 0.00 0.00 83 1016.2
20260508010349 11 158 1.6 1.6 0.00 0.00 0.00 81 1016.2
20260508005736 11 158 0.0 3.2 0.00 0.00 0.00 80 1015.9
20260508003908 12 203 1.6 3.2 0.00 0.00 0.00 75 1015.9
20260508003340 12 158 0.0 4.8 0.00 0.00 0.00 74 1015.5
20260508002734 13 248 0.0 3.2 0.00 0.00 0.00 70 1015.5
20260508002110 14 248 3.2 3.2 0.00 0.00 0.00 66 1015.5
20260508001532 15 23 0.0 0.0 0.00 0.00 0.00 62 1015.5
20260508000949 15 45 1.6 3.2 0.00 0.00 0.00 59 1015.2
20260508000335 15 338 3.2 4.8 0.00 0.00 0.00 53 1015.2
20260507235747 16 23 3.2 8.0 0.00 0.00 0.00 53 1015.2
20260507235119 16 23 4.8 8.0 0.00 0.00 0.00 51 1014.9
20260507234551 16 45 6.4 6.4 0.00 0.00 0.00 49 1014.9
20260507233938 17 338 3.2 9.7 0.00 0.00 0.00 48 1014.9
20260507233347 18 0 6.4 9.7 0.00 0.00 0.00 47 1014.9
20260507231535 18 23 6.4 6.4 0.00 0.00 0.00 48 1014.9
20260507225744 18 338 9.7 9.7 0.00 0.00 0.00 48 1014.9
20260507225120 17 23 4.8 4.8 0.00 0.00 0.00 50 1014.9
20260507224527 18 45 11.3 12.9 0.00 0.00 0.00 49 1014.9
20260507223918 17 315 8.0 11.3 0.00 0.00 0.00 49 1014.5
20260507223338 17 23 9.7 17.7 0.00 0.00 0.00 49 1014.5
20260507222719 18 23 16.1 16.1 0.00 0.00 0.00 47 1014.5
20260507221516 17 315 4.8 4.8 0.00 0.00 0.00 50 1014.5
20260507220312 18 0 4.8 12.9 0.00 0.00 0.00 49 1014.2
20260507215738 18 23 3.2 6.4 0.00 0.00 0.00 52 1014.2
20260507215144 18 23 8.0 8.0 0.00 0.00 0.00 49 1014.2
20260507213944 19 113 6.4 16.1 0.00 0.00 0.00 48 1014.2
20260507212737 20 293 6.4 6.4 0.00 0.00 0.00 52 1014.2
20260507211532 20 0 6.4 6.4 0.00 0.00 0.00 50 1013.8
20260507210928 20 90 4.8 8.0 0.00 0.00 0.00 49 1013.8
20260507210344 20 338 14.5 19.3 0.00 0.00 0.00 49 1013.8
20260507204547 20 113 1.6 3.2 0.00 0.00 0.00 49 1013.8
20260507202737 19 23 3.2 4.8 0.00 0.00 0.00 52 1013.8
20260507202152 20 23 4.8 6.4 0.00 0.00 0.00 50 1013.8
20260507201538 20 0 9.7 9.7 0.00 0.00 0.00 52 1013.8
20260507200938 20 45 8.0 8.0 0.00 0.00 0.00 51 1013.8
20260507195752 20 203 4.8 9.7 0.00 0.00 0.00 53 1013.8
20260507195151 20 158 3.2 9.7 0.00 0.00 0.00 56 1014.2
20260507194514 18 270 0.0 3.2 0.00 0.00 0.00 55 1014.2
20260507193951 18 23 3.2 12.9 0.00 0.00 0.00 54 1014.2
20260507192732 18 45 6.4 9.7 0.00 0.00 0.00 57 1014.2
20260507192146 19 270 4.8 8.0 0.00 0.00 0.00 57 1014.5
20260507191535 19 23 4.8 4.8 0.00 0.00 0.00 57 1014.5
20260507190936 20 23 6.4 9.7 0.00 0.00 0.00 57 1014.5
20260507185724 17 23 1.6 8.0 0.00 0.00 0.00 60 1014.5
20260507185150 19 68 8.0 9.7 0.00 0.00 0.00 56 1014.9
20260507184548 19 270 3.2 4.8 0.00 0.00 0.00 58 1014.9
20260507183951 19 23 6.4 9.7 0.00 0.00 0.00 58 1014.9
20260507183308 18 113 3.2 6.4 0.00 0.00 0.00 57 1014.9
20260507182714 19 23 3.2 6.4 0.00 0.00 0.00 61 1014.9
20260507182150 20 23 8.0 8.0 0.00 0.00 0.00 56 1014.9
20260507181510 18 248 3.2 6.4 0.00 0.00 0.00 61 1014.9
20260507180927 18 158 3.2 8.0 0.00 0.00 0.00 61 1015.2
20260507180324 17 203 3.2 4.8 0.00 0.00 0.00 60 1015.2
20260507174520 17 270 3.2 3.2 0.00 0.00 0.00 63 1015.5
20260507173945 16 270 1.6 6.4 0.00 0.00 0.00 62 1015.2
20260507172732 17 90 1.6 8.0 0.00 0.00 0.00 64 1015.5
20260507172129 17 203 6.4 6.4 0.00 0.00 0.00 63 1015.5
20260507170911 16 0 6.4 6.4 0.00 0.00 0.00 63 1015.5
20260507170321 16 0 4.8 8.0 0.00 0.00 0.00 63 1015.5
20260507165750 16 23 6.4 14.5 0.00 0.00 0.00 61 1015.9
20260507165135 17 180 3.2 4.8 0.00 0.00 0.00 65 1015.9
20260507163923 16 23 6.4 9.7 0.00 0.00 0.00 63 1015.9
20260507162722 17 180 4.8 6.4 0.00 0.00 0.00 63 1015.9
20260507162152 17 180 4.8 8.0 0.00 0.00 0.00 65 1015.9
20260507161555 17 180 8.0 8.0 0.00 0.00 0.00 62 1015.9
20260507160923 16 23 4.8 6.4 0.00 0.00 0.00 66 1016.2
20260507160346 15 45 3.2 6.4 0.00 0.00 0.00 67 1016.2
20260507155731 16 0 3.2 8.0 0.00 0.00 0.00 65 1016.2
20260507155123 15 0 3.2 3.2 0.00 0.00 0.00 66 1016.2
20260507154519 15 0 3.2 6.4 0.00 0.00 0.00 64 1016.2
20260507153911 15 270 3.2 6.4 0.00 0.00 0.00 68 1016.2
20260507153315 15 270 1.6 8.0 0.00 0.00 0.00 65 1016.2
20260507152750 15 0 6.4 8.0 0.00 0.00 0.00 67 1016.2
20260507151534 15 23 4.8 4.8 0.00 0.00 0.00 67 1016.2
20260507150347 15 270 1.6 4.8 0.00 0.00 0.00 71 1016.2
20260507145715 15 180 4.8 6.4 0.00 0.00 0.00 70 1016.2
20260507145111 15 0 3.2 4.8 0.00 0.00 0.00 69 1016.2
20260507144515 15 203 3.2 3.2 0.00 0.00 0.00 70 1016.2
20260507143939 15 203 4.8 6.4 0.00 0.00 0.00 70 1016.2
20260507143320 15 338 0.0 3.2 0.00 0.00 0.00 74 1016.2
20260507142123 14 23 4.8 4.8 0.00 0.00 0.00 75 1016.2
20260507141517 14 315 1.6 1.6 0.00 0.00 0.00 79 1016.5
20260507140926 13 248 1.6 4.8 0.00 0.00 0.00 81 1016.5
20260507140342 13 293 3.2 3.2 0.00 0.00 0.00 80 1016.5
20260507135143 13 225 0.0 1.6 0.00 0.00 0.00 81 1016.5
20260507134519 13 0 3.2 3.2 0.00 0.00 0.00 80 1016.5
20260507133319 13 0 1.6 3.2 0.00 0.00 0.00 88 1016.9
20260507132742 13 23 0.0 0.0 0.00 0.00 0.00 94 1016.9
20260507132122 13 225 0.0 0.0 0.00 0.00 0.00 94 1016.9
20260507130911 12 113 0.0 0.0 0.00 0.00 0.00 97 1016.9
20260507130311 12 203 0.0 0.0 0.00 0.00 0.00 97 1016.5
20260507124550 12 293 0.0 0.0 0.00 0.00 0.00 99 1016.9
20260507123943 11 270 0.0 0.0 0.00 0.00 0.00 99 1016.5
20260507123343 11 0 0.0 0.0 0.00 0.00 0.00 99 1016.5
20260507122748 11 225 0.0 0.0 0.00 0.00 0.00 99 1016.5
20260507122127 11 225 0.0 0.0 0.00 0.00 0.00 99 1016.5
20260507120340 11 180 0.0 0.0 0.00 0.00 0.00 99 1016.9
20260507115712 10 0 0.0 0.0 0.00 0.00 0.00 99 1016.9
20260507115146 10 270 0.0 0.0 0.00 0.00 0.00 99 1016.9
20260507114527 10 180 0.0 0.0 0.00 0.00 0.00 99 1016.5
20260507113916 10 203 0.0 0.0 0.00 0.00 0.00 99 1016.9
20260507113326 10 270 0.0 0.0 0.00 0.00 0.00 99 1016.9
20260507112752 10 225 0.0 0.0 0.00 0.00 0.00 99 1016.9
20260507111513 10 270 0.0 0.0 0.00 0.00 0.00 99 1016.5
20260507110940 10 270 0.0 0.0 0.00 0.00 0.00 99 1016.2
20260507110320 10 338 0.0 0.0 0.00 0.00 0.00 99 1016.2
20260507105717 10 45 0.0 0.0 0.00 0.00 0.00 99 1016.2
20260507105143 10 23 0.0 0.0 0.00 0.00 0.00 99 1016.2
20260507104546 10 23 0.0 0.0 0.00 0.00 0.00 99 1016.2
20260507103320 10 45 0.0 0.0 0.00 0.00 0.00 99 1016.2
20260507102729 10 338 0.0 0.0 0.00 0.00 0.00 99 1016.2
20260507101525 10 270 0.0 0.0 0.00 0.00 0.00 99 1015.5
20260507100912 10 180 0.0 0.0 0.00 0.00 0.00 99 1015.5
20260507100332 10 270 0.0 0.0 0.00 0.00 0.00 99 1015.5
20260507095740 10 270 0.0 0.0 0.00 0.00 0.00 99 1015.5
20260507095110 10 338 0.0 0.0 0.00 0.00 0.00 99 1015.5
20260507093930 10 225 0.0 0.0 0.00 0.00 0.00 99 1015.9
20260507093344 10 270 0.0 0.0 0.00 0.00 0.00 99 1015.9
20260507092744 10 270 0.0 0.0 0.00 0.00 0.00 99 1016.2
20260507092130 10 270 0.0 0.0 0.00 0.00 0.00 99 1016.2
20260507091510 10 338 0.0 0.0 0.00 0.00 0.00 99 1015.9
20260507090939 10 0 0.0 0.0 0.00 0.00 0.00 99 1016.2
20260507090318 10 45 0.0 0.0 0.00 0.00 0.00 99 1016.2
20260507085715 10 315 0.0 0.0 0.00 0.00 0.00 99 1015.9
20260507085109 10 338 0.0 0.0 0.00 0.00 0.00 99 1015.9
20260507084541 10 23 0.0 0.0 0.00 0.00 0.00 99 1015.9
20260507083925 10 225 0.0 0.0 0.00 0.00 0.00 99 1015.5
20260507083327 10 23 0.0 0.0 0.00 0.00 0.00 99 1015.5
20260507082121 11 203 0.0 0.0 0.00 0.00 0.00 99 1015.9
20260507081530 11 225 0.0 0.0 0.00 0.00 0.00 99 1015.9
20260507080917 11 248 0.0 0.0 0.00 0.00 0.00 99 1015.9
20260507080337 11 203 0.0 0.0 0.00 0.00 0.00 99 1015.9
20260507075716 11 180 0.0 0.0 0.00 0.00 0.00 99 1015.9
20260507075135 11 23 0.0 0.0 0.00 0.00 0.00 99 1016.2
20260507074541 11 0 0.0 0.0 0.00 0.00 0.00 99 1015.9
20260507073952 11 315 0.0 0.0 0.00 0.00 0.00 99 1015.9
20260507073328 11 0 0.0 0.0 0.00 0.00 0.00 99 1015.9
20260507072748 11 270 0.0 0.0 0.00 0.00 0.00 99 1015.9
20260507072116 11 23 3.2 3.2 0.00 0.00 0.00 99 1015.9
20260507071537 11 203 0.0 0.0 0.00 0.00 0.00 99 1015.5
20260507070310 11 293 0.0 0.0 0.00 0.00 0.00 99 1015.9
20260507065753 11 270 0.0 0.0 0.00 0.00 0.00 99 1015.9